Regional Weather Roundup
Issued by NWS

Home | Current Version | Previous Version | Text Only | Print | Product List | Glossary On
Versions: 1 2 3 4 5 6 7 8 9 10 11 12 13 14 15 16 17 18 19 20 21 22 23 24 25 26 27 28 29 30 31 32 33 34 35 36 37 38 39 40 41 42 43 44 45 46 47 48 49 50
000
ASUS43 KLOT 070510
RWRIL

ILLINOIS REGIONAL WEATHER ROUNDUP
NATIONAL WEATHER SERVICE CHICAGO/ROMEOVILLE IL
1100 PM CST FRI MAR 06 2015

NOTE: "FAIR" INDICATES FEW OR NO CLOUDS BELOW 12,000 FEET WITH NO
SIGNIFICANT WEATHER AND/OR OBSTRUCTIONS TO VISIBILITY.

* THESE STATIONS ARE NOT UNDER NWS QUALITY CONTROL. THEY ALSO MAY NOT
  REPORT WEATHER SUCH AS PRECIPITATION OR FOG.

ILZ001-002-007-009-015-016-024-070600-
NORTHWEST ILLINOIS

CITY           SKY/WX    TMP DP  RH WIND       PRES   REMARKS
MOLINE         CLOUDY    39  27  62 SW9       30.09S WCI  33
STERLING*      MOCLDY    28  21  74 S3        30.10F
SAVANNA*       PTCLDY    25  20  80 CALM      30.10S
$$

ILZ003-004-008-010-011-017-018-070600-
NORTH CENTRAL ILLINOIS

CITY           SKY/WX    TMP DP  RH WIND       PRES   REMARKS
ROCKFORD       MOCLDY    23  17  78 S7        30.11F WCI  15
FREEPORT*      PTCLDY    28  21  77 SW7       30.10F WCI  20
ROCHELLE*      MOCLDY    22  19  86 S10       30.11F WCI  11
DE KALB*       CLEAR     20  17  87 S14       30.11F WCI   6
PERU*          CLEAR     27  21  80 S12       30.13F WCI  16
$$

ILZ005-006-012>014-019>023-070600-
NORTHEAST ILLINOIS

CITY           SKY/WX    TMP DP  RH WIND       PRES   REMARKS
CHICAGO-OHARE  MOCLDY    25  17  72 SW10      30.13F WCI  15
CHICAGO-MIDWAY CLOUDY    25  16  68 S10       30.16F WCI  15
AURORA         FAIR      22  15  75 S7        30.14F WCI  13
LANSING*       PTCLDY    22  15  74 SW14G20   30.18F WCI   9
JOLIET*        PTCLDY    24  17  75 S7        30.16F WCI  16
WAUKEGAN       MOCLDY    23  18  81 SW9       30.11F WCI  13
DUPAGE AIRPORT FAIR      21  16  81 S12       30.13F WCI   9
KANKAKEE*      PTCLDY    21  16  79 S16       30.19F WCI   7
WHEELING       PTCLDY    26  17  68 S9        30.14F WCI  17
MORRIS*        PTCLDY    23  19  86 S9        30.15F WCI  13
ROMEOVILLE*    PTCLDY    21  16  79 S8        30.16F WCI  12
NORTHERLY ISL    N/A     25  16  68 SW9         N/A  WCI  16
$$

LMZ740>746-070600-
SOUTHERN LAKE MICHIGAN

STATION/POSITION SKY/WX   TEMP    WIND        PRES    VSBY  WAVE
                          AIR SEA DIR/SP/G                  HT/PER
                          (F)     (DEG/KT/KT) (MB)    (MI)  (FT/S)
WAUKEGAN HARBOR            26                   N/A
HARRISON CRIB              26     200/ 24/ 30   N/A
BURNHAM HARBOR             25     170/  8/ 11   N/A
CALUMET HARBOR             25     190/ 12/ 16 1020.1F
MICHIGAN CITY              24     180/ 17/ 22   N/A
$$

ILZ025>027-034>036-040-047-049-050-058-095>099-070600-
WEST-CENTRAL ILLINOIS

CITY           SKY/WX    TMP DP  RH WIND       PRES   REMARKS
QUINCY         CLEAR     42  29  59 SW15      30.19F
GALESBURG*     CLEAR     32  26  79 S9        30.13F WCI  24
MACOMB*        CLEAR     39  31  71 SW15      30.17F WCI  31
JACKSONVILLE*  CLEAR     35  25  67 S13       30.22S WCI  26
PITTSFIELD*    CLEAR     44  31  60 SW12G17   30.23S
$$

ILZ028>032-037-038-041>044-048-051>054-059>061-070600-
CENTRAL ILLINOIS

CITY           SKY/WX    TMP DP  RH WIND       PRES   REMARKS
PONTIAC        PTCLDY    27  20  77 S16       30.18F WCI  14
BLOOMINGTON    PTCLDY    26  21  81 SW20      30.19F WCI  12
DECATUR        CLEAR     27  18  69 SW18      30.25F WCI  14
PEORIA         CLEAR     28  21  75 S13       30.18F WCI  17
LACON*         PTCLDY    27  20  75 S6        30.14F WCI  20
LINCOLN*       CLEAR     28  21  74 S12       30.24S WCI  18
SPRINGFIELD    CLEAR     31  21  66 S20       30.23F WCI  19
TAYLORVILLE    CLEAR     27  19  74 S14       30.26F WCI  15
$$

ILZ033-039-045-046-055>057-062-063-070600-
EAST-CENTRAL ILLINOIS

CITY           SKY/WX    TMP DP  RH WIND       PRES   REMARKS
CHAMPAIGN      MOCLDY    23  16  74 S20       30.24F WCI   8
DANVILLE*      MOCLDY    24  15  70 SW15G21   30.23S WCI  11
RANTOUL*       MOCLDY    26  18  73 S10       30.23F WCI  15
MATTOON        CLEAR     25  14  63 S15G23    30.27F WCI  13
PARIS*         CLEAR     24  17  74 S16       30.29F WCI  10
$$

ILZ079-100>102-070600-
SOUTHWEST ILLINOIS

CITY           SKY/WX    TMP DP  RH WIND       PRES   REMARKS
ALTON          CLEAR     32  20  60 S10       30.30F WCI  24
BELLEVILLE     CLEAR     29  22  73 VRB3      30.32F
CAHOKIA*       CLEAR     37  22  54 SW7       30.32F WCI  32
SPARTA*        CLEAR     27  18  69 S9        30.36S WCI  17
$$

ILZ064>066-069>071-074>076-080>082-084>086-088>090-092>094-070600-
SOUTH-CENTRAL ILLINOIS

CITY           SKY/WX    TMP DP  RH WIND       PRES   REMARKS
CARBONDALE     CLEAR     26  15  63 SW12      30.39F WCI  16
CAIRO*         CLEAR     26  15  63 CALM      30.44F
EFFINGHAM*     CLEAR     26  14  59 S8        30.33F WCI  18
MARION         CLEAR     27  16  63 SW9       30.40S WCI  17
MT. VERNON     CLEAR     27  16  63 SW14      30.36F WCI  15
CENTRALIA*     CLEAR     27  18  67 S12       30.34F WCI  17
SALEM*         CLEAR     29  18  65 SW12      30.34F WCI  19
METROPOLIS*    CLEAR     24  15  69 S5        30.43F WCI  18
$$

ILZ067-068-072-073-078-083-087-091-070600-
SOUTHEAST ILLINOIS

CITY           SKY/WX    TMP DP  RH WIND       PRES   REMARKS
LAWRENCEVILLE  CLEAR     24  14  65 SW10      30.37S WCI  14
FLORA*         CLEAR     24  16  71 S10       30.35F WCI  14
FAIRFIELD*     CLEAR     25  15  67 S7        30.36F WCI  17
HARRISBURG*    CLEAR     25  14  62 SW7       30.41F WCI  18
ROBINSON*      CLEAR     24  15  66 SW8       30.36F WCI  16
CARMI*         CLEAR     20  15  81 S7        30.39S WCI  11
$$

ABBREVIATIONS USED IN REMARKS
   TC - TEMPERATURE IN CELSIUS
  WCI - WIND CHILL INDEX
   HX - HEAT INDEX
  VSB - VISIBILITY
$$




USA.gov is the U.S. government's official web portal to all federal, state and local government web resources and services.